,,,PA_Meas_PMT16A,,PR_Meas_QMR101_102,,RH_Meas_QMH101,,SR_Meas_QMS101,,TA_Meas_QMH101,,GenWind,,GenWind,
date,time,status,PA,status,PR,status,RH,status,SR,status,TA,status,DirAvg,status,SpdAvg,
2010-07-29, 00:00:04,VALID,1010.74,VALID,0,VALID,102.681,VALID,0,VALID,24.3176,VALID,52,VALID,0.606641,
2010-07-29, 00:01:04,VALID,1010.75,VALID,0,VALID,102.688,VALID,0,VALID,24.2981,VALID,37,VALID,0.536328,
2010-07-29, 00:02:04,VALID,1010.8,VALID,0,VALID,102.658,VALID,0,VALID,24.3194,VALID,37,VALID,0.469531,
2010-07-29, 00:03:04,VALID,1010.8,VALID,0,VALID,102.627,VALID,0,VALID,24.2981,VALID,56,VALID,0.180859,
2010-07-29, 00:04:04,VALID,1010.86,VALID,0,VALID,102.62,VALID,0.105969,VALID,24.2963,VALID,56,VALID,0.2,
2010-07-29, 00:05:04,VALID,1010.85,VALID,0,VALID,102.597,VALID,0.105969,VALID,24.2963,VALID,50,VALID,0.155859,
2010-07-29, 00:06:04,VALID,1010.86,VALID,0,VALID,102.566,VALID,0.105969,VALID,24.2963,VALID,57,VALID,0.462891,
2010-07-29, 00:07:04,VALID,1010.88,VALID,0,VALID,102.597,VALID,0.105969,VALID,24.2768,VALID,86,VALID,0.621875,
2010-07-29, 00:08:04,VALID,1010.86,VALID,0,VALID,102.574,VALID,0.105969,VALID,24.2573,VALID,78,VALID,0.969141,
2010-07-29, 00:09:04,VALID,1010.81,VALID,0,VALID,102.582,VALID,0.105969,VALID,24.2573,VALID,26,VALID,0.349609,
2010-07-29, 00:10:04,VALID,1010.77,VALID,0,VALID,102.582,VALID,0.105969,VALID,24.236,VALID,68,VALID,0.617188,
2010-07-29, 00:11:04,VALID,1010.72,VALID,0,VALID,102.612,VALID,0.105969,VALID,24.2786,VALID,52,VALID,0.0878906,
2010-07-29, 00:12:04,VALID,1010.7,VALID,0,VALID,102.589,VALID,0.105969,VALID,24.2573,VALID,32,VALID,0.542969,
2010-07-29, 00:13:04,VALID,1010.7,VALID,0,VALID,102.635,VALID,0.105969,VALID,24.2573,VALID,31,VALID,0,
2010-07-29, 00:14:04,VALID,1010.66,VALID,0,VALID,102.62,VALID,0.105969,VALID,24.2573,VALID,31,VALID,0,
2010-07-29, 00:15:04,VALID,1010.67,VALID,0,VALID,102.658,VALID,0.105969,VALID,24.2573,VALID,31,VALID,0,
2010-07-29, 00:16:04,VALID,1010.69,VALID,0,VALID,102.643,VALID,0.105969,VALID,24.2573,VALID,31,VALID,0,
2010-07-29, 00:17:04,VALID,1010.7,VALID,0,VALID,102.666,VALID,0.105969,VALID,24.2786,VALID,31,VALID,0,
2010-07-29, 00:18:04,VALID,1010.69,VALID,0,VALID,102.666,VALID,0.105969,VALID,24.2573,VALID,31,VALID,0,
2010-07-29, 00:19:04,VALID,1010.69,VALID,0,VALID,102.681,VALID,0,VALID,24.2591,VALID,31,VALID,0,
2010-07-29, 00:20:04,VALID,1010.68,VALID,0,VALID,102.673,VALID,0,VALID,24.2378,VALID,37,VALID,1.01758,
2010-07-29, 00:21:04,VALID,1010.7,VALID,0,VALID,102.688,VALID,0,VALID,24.2786,VALID,63,VALID,0.405078,
2010-07-29, 00:22:04,VALID,1010.7,VALID,0,VALID,102.704,VALID,0,VALID,24.2573,VALID,61,VALID,0.458984,
2010-07-29, 00:23:04,VALID,1010.71,VALID,0,VALID,102.719,VALID,0,VALID,24.2573,VALID,61,VALID,0.376563,
2010-07-29, 00:24:04,VALID,1010.72,VALID,0,VALID,102.734,VALID,0.105969,VALID,24.2768,VALID,64,VALID,0.257422,
2010-07-29, 00:25:04,VALID,1010.71,VALID,0,VALID,102.742,VALID,0,VALID,24.2786,VALID,60,VALID,0.256641,
2010-07-29, 00:26:04,VALID,1010.71,VALID,0,VALID,102.757,VALID,0,VALID,24.2768,VALID,61,VALID,0.241016,
2010-07-29, 00:27:04,VALID,1010.69,VALID,0,VALID,102.757,VALID,0,VALID,24.2768,VALID,65,VALID,0.348828,
2010-07-29, 00:28:04,VALID,1010.69,VALID,0,VALID,102.765,VALID,0.105969,VALID,24.2768,VALID,65,VALID,0.173438,
2010-07-29, 00:29:04,VALID,1010.68,VALID,0,VALID,102.765,VALID,0,VALID,24.2963,VALID,65,VALID,0.174219,
2010-07-29, 00:30:04,VALID,1010.64,VALID,0,VALID,102.772,VALID,0.105969,VALID,24.2963,VALID,66,VALID,0.466016,
2010-07-29, 00:31:04,VALID,1010.64,VALID,0,VALID,102.78,VALID,0,VALID,24.2963,VALID,68,VALID,0.119922,
2010-07-29, 00:32:04,VALID,1010.64,VALID,0,VALID,102.765,VALID,0,VALID,24.3158,VALID,73,VALID,0.598437,
2010-07-29, 00:33:04,VALID,1010.61,VALID,0,VALID,102.772,VALID,0,VALID,24.2963,VALID,76,VALID,0.347266,
2010-07-29, 00:34:04,VALID,1010.59,VALID,0,VALID,102.788,VALID,0,VALID,24.3176,VALID,76,VALID,0.694141,
2010-07-29, 00:35:04,VALID,1010.59,VALID,0,VALID,102.78,VALID,0,VALID,24.3371,VALID,76,VALID,0.405859,
2010-07-29, 00:36:04,VALID,1010.56,VALID,0,VALID,102.78,VALID,0,VALID,24.3566,VALID,79,VALID,0.419922,
2010-07-29, 00:37:04,VALID,1010.54,VALID,0,VALID,102.795,VALID,0,VALID,24.3566,VALID,84,VALID,0.307813,
2010-07-29, 00:38:04,VALID,1010.55,VALID,0,VALID,102.765,VALID,0,VALID,24.3566,VALID,93,VALID,0.287109,
2010-07-29, 00:39:04,VALID,1010.53,VALID,0,VALID,102.772,VALID,0,VALID,24.3566,VALID,55,VALID,0.182422,
2010-07-29, 00:40:04,VALID,1010.54,VALID,0,VALID,102.757,VALID,0,VALID,24.3761,VALID,78,VALID,0.173438,
2010-07-29, 00:41:04,VALID,1010.54,VALID,0,VALID,102.757,VALID,0,VALID,24.3761,VALID,78,VALID,0.238281,
2010-07-29, 00:42:04,VALID,1010.51,VALID,0,VALID,102.803,VALID,0,VALID,24.3956,VALID,72,VALID,0.348047,
2010-07-29, 00:43:04,VALID,1010.46,VALID,0,VALID,102.81,VALID,0,VALID,24.3956,VALID,68,VALID,0.586328,
2010-07-29, 00:44:04,VALID,1010.43,VALID,0,VALID,102.78,VALID,0,VALID,24.415,VALID,64,VALID,0.00234375,
2010-07-29, 00:45:04,VALID,1010.39,VALID,0,VALID,102.81,VALID,0,VALID,24.415,VALID,73,VALID,0.405078,
2010-07-29, 00:46:04,VALID,1010.39,VALID,0,VALID,102.795,VALID,0,VALID,24.4169,VALID,82,VALID,0.349219,
2010-07-29, 00:47:04,VALID,1010.35,VALID,0,VALID,102.78,VALID,0,VALID,24.4364,VALID,85,VALID,0.464844,
2010-07-29, 00:48:04,VALID,1010.3,VALID,0,VALID,102.788,VALID,0,VALID,24.4364,VALID,80,VALID,0.733594,
2010-07-29, 00:49:04,VALID,1010.3,VALID,0,VALID,102.795,VALID,0,VALID,24.4345,VALID,81,VALID,0.305859,
2010-07-29, 00:50:04,VALID,1010.29,VALID,0,VALID,102.772,VALID,0,VALID,24.4364,VALID,81,VALID,0.383203,
2010-07-29, 00:51:04,VALID,1010.28,VALID,0,VALID,102.772,VALID,0,VALID,24.4345,VALID,69,VALID,0.632031,
2010-07-29, 00:52:04,VALID,1010.27,VALID,0,VALID,102.78,VALID,0,VALID,24.4345,VALID,70,VALID,0.212109,
2010-07-29, 00:53:04,VALID,1010.27,VALID,0,VALID,102.772,VALID,0,VALID,24.4345,VALID,51,VALID,0.603516,
2010-07-29, 00:54:04,VALID,1010.26,VALID,0,VALID,102.788,VALID,0,VALID,24.4345,VALID,44,VALID,0.265625,
2010-07-29, 00:55:04,VALID,1010.27,VALID,0,VALID,102.788,VALID,0,VALID,24.4345,VALID,44,VALID,0.0738281,
2010-07-29, 00:56:04,VALID,1010.24,VALID,0,VALID,102.765,VALID,0,VALID,24.4345,VALID,44,VALID,0.25,
2010-07-29, 00:57:04,VALID,1010.23,VALID,0,VALID,102.765,VALID,0,VALID,24.454,VALID,44,VALID,0.131641,
2010-07-29, 00:58:04,VALID,1010.22,VALID,0,VALID,102.78,VALID,0,VALID,24.4345,VALID,44,VALID,0.00664063,
2010-07-29, 00:59:04,VALID,1010.21,VALID,0,VALID,102.765,VALID,0,VALID,24.454,VALID,44,VALID,0.429297,
2010-07-29, 01:00:04,VALID,1010.19,VALID,0,VALID,102.788,VALID,0,VALID,24.4345,VALID,44,VALID,0.159766,
2010-07-29, 01:01:04,VALID,1010.23,VALID,0,VALID,102.757,VALID,0,VALID,24.4345,VALID,44,VALID,0.000390625,
2010-07-29, 01:02:04,VALID,1010.16,VALID,0,VALID,102.772,VALID,0,VALID,24.4345,VALID,44,VALID,0,
2010-07-29, 01:03:04,VALID,1010.16,VALID,0,VALID,102.765,VALID,0,VALID,24.4345,VALID,63,VALID,0.172266,
2010-07-29, 01:04:04,VALID,1010.14,VALID,0,VALID,102.788,VALID,0,VALID,24.4345,VALID,63,VALID,0.00390625,
2010-07-29, 01:05:04,VALID,1010.15,VALID,0,VALID,102.765,VALID,0,VALID,24.4345,VALID,63,VALID,0.000390625,
2010-07-29, 01:06:04,VALID,1010.16,VALID,0,VALID,102.772,VALID,0,VALID,24.4327,VALID,52,VALID,0,
2010-07-29, 01:07:04,VALID,1010.15,VALID,0,VALID,102.757,VALID,0,VALID,24.4345,VALID,52,VALID,0.00273437,
2010-07-29, 01:08:04,VALID,1010.15,VALID,0,VALID,102.78,VALID,0,VALID,24.4132,VALID,52,VALID,0.141797,
2010-07-29, 01:09:04,VALID,1010.18,VALID,0,VALID,102.757,VALID,0,VALID,24.4132,VALID,52,VALID,0.0257812,
2010-07-29, 01:10:04,VALID,1010.17,VALID,0,VALID,102.765,VALID,0,VALID,24.4132,VALID,52,VALID,0,
2010-07-29, 01:11:04,VALID,1010.19,VALID,0,VALID,102.765,VALID,0,VALID,24.4132,VALID,52,VALID,0.00585938,
2010-07-29, 01:12:04,VALID,1010.2,VALID,0,VALID,102.788,VALID,0,VALID,24.4345,VALID,52,VALID,0.255078,
2010-07-29, 01:13:04,VALID,1010.2,VALID,0,VALID,102.78,VALID,0,VALID,24.4132,VALID,70,VALID,0.475781,
2010-07-29, 01:14:04,VALID,1010.21,VALID,0,VALID,102.772,VALID,0.105969,VALID,24.4327,VALID,94,VALID,0.667578,
2010-07-29, 01:15:04,VALID,1010.2,VALID,0,VALID,102.78,VALID,0,VALID,24.454,VALID,78,VALID,0.398047,
2010-07-29, 01:16:04,VALID,1010.21,VALID,0,VALID,102.772,VALID,0,VALID,24.4327,VALID,90,VALID,0.510156,
2010-07-29, 01:17:04,VALID,1010.22,VALID,0,VALID,102.765,VALID,0,VALID,24.4522,VALID,88,VALID,0.616797,
2010-07-29, 01:18:04,VALID,1010.2,VALID,0,VALID,102.78,VALID,0,VALID,24.4522,VALID,90,VALID,0.789453,
2010-07-29, 01:19:04,VALID,1010.2,VALID,0,VALID,102.788,VALID,0.105969,VALID,24.4717,VALID,94,VALID,0.513672,
2010-07-29, 01:20:04,VALID,1010.19,VALID,0,VALID,102.757,VALID,0.105969,VALID,24.4911,VALID,80,VALID,0.927734,
2010-07-29, 01:21:04,VALID,1010.19,VALID,0,VALID,102.788,VALID,0.105969,VALID,24.532,VALID,102,VALID,1.02656,
2010-07-29, 01:22:04,VALID,1010.16,VALID,0,VALID,102.78,VALID,0.105969,VALID,24.5106,VALID,101,VALID,0.945703,
2010-07-29, 01:23:04,VALID,1010.15,VALID,0,VALID,102.788,VALID,0.105969,VALID,24.5106,VALID,101,VALID,0.947266,
2010-07-29, 01:24:04,VALID,1010.1,VALID,0,VALID,102.734,VALID,0,VALID,24.5106,VALID,89,VALID,0.923437,
2010-07-29, 01:25:04,VALID,1010.11,VALID,0,VALID,102.711,VALID,0.105969,VALID,24.5106,VALID,92,VALID,0.742188,
2010-07-29, 01:26:04,VALID,1010.09,VALID,0,VALID,102.681,VALID,0.105969,VALID,24.5106,VALID,98,VALID,0.297656,
2010-07-29, 01:27:04,VALID,1010.07,VALID,0,VALID,102.65,VALID,0,VALID,24.5106,VALID,98,VALID,0.8,
2010-07-29, 01:28:04,VALID,1010.01,VALID,0,VALID,102.635,VALID,0,VALID,24.5106,VALID,98,VALID,0.786328,
2010-07-29, 01:29:04,VALID,1009.99,VALID,0,VALID,102.605,VALID,0.105969,VALID,24.5301,VALID,98,VALID,0.599609,
2010-07-29, 01:30:04,VALID,1009.96,VALID,0,VALID,102.574,VALID,0.105969,VALID,24.5515,VALID,79,VALID,0.852734,
2010-07-29, 01:31:04,VALID,1009.96,VALID,0,VALID,102.551,VALID,0.105969,VALID,24.5496,VALID,98,VALID,0.773438,
2010-07-29, 01:32:04,VALID,1009.95,VALID,0,VALID,102.521,VALID,0.105969,VALID,24.5496,VALID,96,VALID,0.600781,
2010-07-29, 01:33:04,VALID,1009.97,VALID,0,VALID,102.505,VALID,0,VALID,24.5496,VALID,90,VALID,0.211719,
2010-07-29, 01:34:04,VALID,1009.97,VALID,0,VALID,102.498,VALID,0.105969,VALID,24.5515,VALID,50,VALID,0.528516,
2010-07-29, 01:35:04,VALID,1009.96,VALID,0,VALID,102.437,VALID,0.105969,VALID,24.5106,VALID,50,VALID,0.508984,
2010-07-29, 01:36:04,VALID,1009.96,VALID,0,VALID,102.421,VALID,0,VALID,24.5106,VALID,79,VALID,0.605469,
2010-07-29, 01:37:04,VALID,1009.99,VALID,0,VALID,102.399,VALID,0.105969,VALID,24.4911,VALID,78,VALID,0.38125,
2010-07-29, 01:38:04,VALID,1009.98,VALID,0,VALID,102.421,VALID,0.105969,VALID,24.4911,VALID,76,VALID,0.542578,
2010-07-29, 01:39:04,VALID,1009.99,VALID,0,VALID,102.399,VALID,0.105969,VALID,24.4717,VALID,76,VALID,0.335938,
2010-07-29, 01:40:04,VALID,1009.96,VALID,0,VALID,102.437,VALID,0.105969,VALID,24.4717,VALID,76,VALID,0,
2010-07-29, 01:41:04,VALID,1009.94,VALID,0,VALID,102.437,VALID,0.105969,VALID,24.4735,VALID,76,VALID,0,
2010-07-29, 01:42:04,VALID,1009.93,VALID,0,VALID,102.452,VALID,0.105969,VALID,24.4522,VALID,76,VALID,0,
2010-07-29, 01:43:04,VALID,1009.91,VALID,0,VALID,102.46,VALID,0.105969,VALID,24.4717,VALID,76,VALID,0,
2010-07-29, 01:44:04,VALID,1009.85,VALID,0,VALID,102.46,VALID,0,VALID,24.4522,VALID,76,VALID,0.188281,
2010-07-29, 01:45:04,VALID,1009.82,VALID,0,VALID,102.46,VALID,0.105969,VALID,24.4327,VALID,76,VALID,0,
2010-07-29, 01:46:04,VALID,1009.81,VALID,0,VALID,102.498,VALID,0.105969,VALID,24.4327,VALID,75,VALID,0.000390625,
2010-07-29, 01:47:04,VALID,1009.78,VALID,0,VALID,102.482,VALID,0.105969,VALID,24.4132,VALID,48,VALID,0.225,
2010-07-29, 01:48:04,VALID,1009.76,VALID,0,VALID,102.475,VALID,0.105969,VALID,24.4327,VALID,29,VALID,0.672656,
2010-07-29, 01:49:04,VALID,1009.75,VALID,0,VALID,102.46,VALID,0,VALID,24.4345,VALID,24,VALID,0.501953,
2010-07-29, 01:50:04,VALID,1009.7,VALID,0,VALID,102.437,VALID,0,VALID,24.4345,VALID,59,VALID,0.35,
2010-07-29, 01:51:04,VALID,1009.7,VALID,0,VALID,102.421,VALID,0,VALID,24.4345,VALID,51,VALID,0.327344,
2010-07-29, 01:52:04,VALID,1009.68,VALID,0,VALID,102.406,VALID,0,VALID,24.4345,VALID,51,VALID,0.217969,
2010-07-29, 01:53:04,VALID,1009.67,VALID,0,VALID,102.391,VALID,0,VALID,24.415,VALID,51,VALID,0.286719,
2010-07-29, 01:54:04,VALID,1009.7,VALID,0,VALID,102.406,VALID,0,VALID,24.415,VALID,51,VALID,0.246094,
2010-07-29, 01:55:04,VALID,1009.68,VALID,0,VALID,102.406,VALID,0,VALID,24.4345,VALID,51,VALID,0,
2010-07-29, 01:56:04,VALID,1009.66,VALID,0,VALID,102.399,VALID,0,VALID,24.415,VALID,51,VALID,0,
2010-07-29, 01:57:04,VALID,1009.67,VALID,0,VALID,102.414,VALID,0,VALID,24.415,VALID,51,VALID,0,
2010-07-29, 01:58:04,VALID,1009.67,VALID,0,VALID,102.452,VALID,0,VALID,24.4345,VALID,51,VALID,0,
2010-07-29, 01:59:04,VALID,1009.65,VALID,0,VALID,102.437,VALID,0,VALID,24.415,VALID,51,VALID,0.0421875,
2010-07-29, 02:00:04,VALID,1009.65,VALID,0,VALID,102.49,VALID,0,VALID,24.415,VALID,51,VALID,0.388672,
2010-07-29, 02:01:04,VALID,1009.64,VALID,0,VALID,102.475,VALID,0,VALID,24.415,VALID,51,VALID,0.1625,
2010-07-29, 02:02:04,VALID,1009.63,VALID,0,VALID,102.46,VALID,0,VALID,24.415,VALID,51,VALID,0.275781,
2010-07-29, 02:03:04,VALID,1009.63,VALID,0,VALID,102.467,VALID,0,VALID,24.3956,VALID,51,VALID,0,
2010-07-29, 02:04:04,VALID,1009.59,VALID,0,VALID,102.475,VALID,0,VALID,24.415,VALID,51,VALID,0,
2010-07-29, 02:05:04,VALID,1009.56,VALID,0,VALID,102.498,VALID,0,VALID,24.3956,VALID,51,VALID,0,
2010-07-29, 02:06:04,VALID,1009.55,VALID,0,VALID,102.498,VALID,0,VALID,24.3956,VALID,51,VALID,0,
2010-07-29, 02:07:04,VALID,1009.53,VALID,0,VALID,102.513,VALID,0,VALID,24.3761,VALID,51,VALID,0.135547,
2010-07-29, 02:08:04,VALID,1009.52,VALID,0,VALID,102.528,VALID,0,VALID,24.3956,VALID,51,VALID,0,
2010-07-29, 02:09:04,VALID,1009.5,VALID,0,VALID,102.521,VALID,0,VALID,24.3761,VALID,51,VALID,0,
2010-07-29, 02:10:04,VALID,1009.48,VALID,0,VALID,102.536,VALID,0,VALID,24.3761,VALID,51,VALID,0,
2010-07-29, 02:11:04,VALID,1009.45,VALID,0,VALID,102.528,VALID,0,VALID,24.3566,VALID,51,VALID,0,
2010-07-29, 02:12:04,VALID,1009.41,VALID,0,VALID,102.551,VALID,0,VALID,24.3566,VALID,51,VALID,0,
2010-07-29, 02:13:04,VALID,1009.39,VALID,0,VALID,102.566,VALID,0,VALID,24.3566,VALID,51,VALID,0,
2010-07-29, 02:14:04,VALID,1009.39,VALID,0,VALID,102.574,VALID,0,VALID,24.3566,VALID,53,VALID,0.224219,
2010-07-29, 02:15:04,VALID,1009.36,VALID,0,VALID,102.597,VALID,0,VALID,24.3584,VALID,82,VALID,0.0378906,
2010-07-29, 02:16:04,VALID,1009.35,VALID,0,VALID,102.597,VALID,0,VALID,24.3371,VALID,82,VALID,0.189063,
2010-07-29, 02:17:04,VALID,1009.33,VALID,0,VALID,102.582,VALID,0,VALID,24.3371,VALID,82,VALID,0.162109,
2010-07-29, 02:18:04,VALID,1009.24,VALID,0,VALID,102.589,VALID,0,VALID,24.3176,VALID,82,VALID,0,
2010-07-29, 02:19:04,VALID,1009.25,VALID,0,VALID,102.589,VALID,0,VALID,24.3176,VALID,82,VALID,0.0648438,
2010-07-29, 02:20:04,VALID,1009.2,VALID,0,VALID,102.62,VALID,0,VALID,24.3176,VALID,82,VALID,0.0539063,
2010-07-29, 02:21:04,VALID,1009.21,VALID,0,VALID,102.627,VALID,0,VALID,24.3176,VALID,82,VALID,0,
2010-07-29, 02:22:04,VALID,1009.23,VALID,0,VALID,102.627,VALID,0,VALID,24.2981,VALID,82,VALID,0,
2010-07-29, 02:23:04,VALID,1009.23,VALID,0,VALID,102.635,VALID,0,VALID,24.2981,VALID,82,VALID,0,
2010-07-29, 02:24:04,VALID,1009.19,VALID,0,VALID,102.627,VALID,0,VALID,24.2981,VALID,82,VALID,0,
2010-07-29, 02:25:04,VALID,1009.17,VALID,0,VALID,102.635,VALID,0,VALID,24.2786,VALID,82,VALID,0,
2010-07-29, 02:26:04,VALID,1009.14,VALID,0,VALID,102.658,VALID,0,VALID,24.2591,VALID,82,VALID,0.179688,
2010-07-29, 02:27:04,VALID,1009.15,VALID,0,VALID,102.658,VALID,0,VALID,24.2396,VALID,82,VALID,0,
2010-07-29, 02:28:04,VALID,1009.14,VALID,0,VALID,102.666,VALID,0,VALID,24.2396,VALID,82,VALID,0,
2010-07-29, 02:29:04,VALID,1009.17,VALID,0,VALID,102.658,VALID,0,VALID,24.2202,VALID,82,VALID,0,
2010-07-29, 02:30:04,VALID,1009.18,VALID,0,VALID,102.711,VALID,0,VALID,24.2415,VALID,78,VALID,0.121484,
2010-07-29, 02:31:04,VALID,1009.14,VALID,0,VALID,102.719,VALID,0,VALID,24.2415,VALID,96,VALID,0.405859,
2010-07-29, 02:32:04,VALID,1009.15,VALID,0,VALID,102.719,VALID,0,VALID,24.222,VALID,96,VALID,0,
2010-07-29, 02:33:04,VALID,1009.17,VALID,0,VALID,102.742,VALID,0,VALID,24.2415,VALID,79,VALID,0.375781,
2010-07-29, 02:34:04,VALID,1009.17,VALID,0,VALID,102.727,VALID,0,VALID,24.1988,VALID,78,VALID,0,
2010-07-29, 02:35:04,VALID,1009.18,VALID,0,VALID,102.734,VALID,0,VALID,24.1988,VALID,78,VALID,0,
2010-07-29, 02:36:04,VALID,1009.16,VALID,0,VALID,102.749,VALID,0,VALID,24.2202,VALID,78,VALID,0,
2010-07-29, 02:37:04,VALID,1009.17,VALID,0,VALID,102.742,VALID,0.105969,VALID,24.2202,VALID,78,VALID,0,
2010-07-29, 02:38:04,VALID,1009.17,VALID,0,VALID,102.742,VALID,0,VALID,24.1988,VALID,78,VALID,0,
2010-07-29, 02:39:04,VALID,1009.18,VALID,0,VALID,102.749,VALID,0,VALID,24.2202,VALID,77,VALID,0,
2010-07-29, 02:40:04,VALID,1009.2,VALID,0,VALID,102.772,VALID,0,VALID,24.1988,VALID,77,VALID,0,
2010-07-29, 02:41:04,VALID,1009.23,VALID,0,VALID,102.772,VALID,0,VALID,24.2202,VALID,77,VALID,0,
2010-07-29, 02:42:04,VALID,1009.22,VALID,0,VALID,102.772,VALID,0,VALID,24.2202,VALID,77,VALID,0,
2010-07-29, 02:43:04,VALID,1009.2,VALID,0,VALID,102.78,VALID,0,VALID,24.2007,VALID,77,VALID,0,
2010-07-29, 02:44:04,VALID,1009.22,VALID,0,VALID,102.788,VALID,0,VALID,24.2007,VALID,65,VALID,0,
2010-07-29, 02:45:04,VALID,1009.22,VALID,0,VALID,102.772,VALID,0,VALID,24.2202,VALID,60,VALID,0,
2010-07-29, 02:46:04,VALID,1009.22,VALID,0,VALID,102.765,VALID,0,VALID,24.1793,VALID,60,VALID,0,
2010-07-29, 02:47:04,VALID,1009.22,VALID,0,VALID,102.772,VALID,0,VALID,24.2007,VALID,60,VALID,0,
2010-07-29, 02:48:04,VALID,1009.21,VALID,0,VALID,102.788,VALID,0.105969,VALID,24.1812,VALID,63,VALID,0.555859,
2010-07-29, 02:49:04,VALID,1009.2,VALID,0,VALID,102.803,VALID,0.105969,VALID,24.1599,VALID,64,VALID,0.380078,
2010-07-29, 02:50:04,VALID,1009.21,VALID,0,VALID,102.788,VALID,0,VALID,24.1812,VALID,65,VALID,0,
2010-07-29, 02:51:04,VALID,1009.21,VALID,0,VALID,102.78,VALID,0,VALID,24.1812,VALID,65,VALID,0.174219,
2010-07-29, 02:52:04,VALID,1009.18,VALID,0,VALID,102.795,VALID,0,VALID,24.1812,VALID,65,VALID,0.105859,
2010-07-29, 02:53:04,VALID,1009.19,VALID,0,VALID,102.795,VALID,0.105969,VALID,24.1812,VALID,58,VALID,0.046875,
2010-07-29, 02:54:04,VALID,1009.18,VALID,0,VALID,102.788,VALID,0,VALID,24.1812,VALID,351,VALID,0.325391,
2010-07-29, 02:55:04,VALID,1009.21,VALID,0,VALID,102.788,VALID,0.105969,VALID,24.1793,VALID,351,VALID,0,
2010-07-29, 02:56:04,VALID,1009.19,VALID,0,VALID,102.795,VALID,0,VALID,24.2007,VALID,351,VALID,0.190234,
2010-07-29, 02:57:04,VALID,1009.19,VALID,0,VALID,102.803,VALID,0,VALID,24.2007,VALID,351,VALID,0.295703,
2010-07-29, 02:58:04,VALID,1009.16,VALID,0,VALID,102.788,VALID,0,VALID,24.1812,VALID,351,VALID,0.009375,
2010-07-29, 02:59:04,VALID,1009.13,VALID,0,VALID,102.78,VALID,0,VALID,24.2007,VALID,351,VALID,0.0941406,
2010-07-29, 03:00:04,VALID,1009.08,VALID,0,VALID,102.818,VALID,0,VALID,24.1793,VALID,351,VALID,0.1875,
2010-07-29, 03:01:04,VALID,1009.07,VALID,0,VALID,102.78,VALID,0,VALID,24.2007,VALID,351,VALID,0,
2010-07-29, 03:02:04,VALID,1009.06,VALID,0,VALID,102.81,VALID,0,VALID,24.2007,VALID,351,VALID,0,
2010-07-29, 03:03:04,VALID,1009.04,VALID,0,VALID,102.803,VALID,0,VALID,24.1599,VALID,351,VALID,0,
2010-07-29, 03:04:04,VALID,1009.05,VALID,0,VALID,102.795,VALID,0,VALID,24.1599,VALID,351,VALID,0,
2010-07-29, 03:05:04,VALID,1009.08,VALID,0,VALID,102.772,VALID,0,VALID,24.1793,VALID,351,VALID,0,
2010-07-29, 03:06:04,VALID,1009.11,VALID,0,VALID,102.788,VALID,0.105969,VALID,24.1599,VALID,351,VALID,0,
2010-07-29, 03:07:04,VALID,1009.17,VALID,0,VALID,102.803,VALID,0,VALID,24.1793,VALID,9,VALID,0.501172,
2010-07-29, 03:08:04,VALID,1009.2,VALID,0,VALID,102.788,VALID,0,VALID,24.1812,VALID,26,VALID,0.0859375,
2010-07-29, 03:09:04,VALID,1009.26,VALID,0,VALID,102.803,VALID,0.105969,VALID,24.1812,VALID,26,VALID,0.226563,
2010-07-29, 03:10:04,VALID,1009.28,VALID,0,VALID,102.795,VALID,0,VALID,24.1617,VALID,26,VALID,0.186719,
2010-07-29, 03:11:04,VALID,1009.35,VALID,0,VALID,102.78,VALID,0,VALID,24.1599,VALID,26,VALID,0,
2010-07-29, 03:12:04,VALID,1009.32,VALID,0,VALID,102.788,VALID,0.105969,VALID,24.1599,VALID,97,VALID,0,
2010-07-29, 03:13:04,VALID,1009.36,VALID,0,VALID,102.81,VALID,0,VALID,24.1599,VALID,132,VALID,0.610547,
2010-07-29, 03:14:04,VALID,1009.36,VALID,0,VALID,102.765,VALID,0.105969,VALID,24.1812,VALID,137,VALID,0.678906,
2010-07-29, 03:15:04,VALID,1009.38,VALID,0,VALID,102.772,VALID,0,VALID,24.2007,VALID,149,VALID,0.922656,
2010-07-29, 03:16:04,VALID,1009.34,VALID,0,VALID,102.795,VALID,0,VALID,24.1988,VALID,152,VALID,0.728516,
2010-07-29, 03:17:04,VALID,1009.35,VALID,0,VALID,102.803,VALID,0.105969,VALID,24.2007,VALID,152,VALID,0.767578,
2010-07-29, 03:18:04,VALID,1009.31,VALID,0,VALID,102.795,VALID,0.105969,VALID,24.2007,VALID,151,VALID,0.700391,
2010-07-29, 03:19:04,VALID,1009.32,VALID,0,VALID,102.81,VALID,0,VALID,24.2202,VALID,151,VALID,0.527344,
2010-07-29, 03:20:04,VALID,1009.31,VALID,0,VALID,102.788,VALID,0,VALID,24.1988,VALID,151,VALID,0.551172,
2010-07-29, 03:21:04,VALID,1009.29,VALID,0,VALID,102.788,VALID,0.105969,VALID,24.1988,VALID,156,VALID,1.1668,
2010-07-29, 03:22:04,VALID,1009.3,VALID,0,VALID,102.803,VALID,0,VALID,24.2202,VALID,143,VALID,1.01289,
2010-07-29, 03:23:04,VALID,1009.31,VALID,0,VALID,102.795,VALID,0,VALID,24.2202,VALID,143,VALID,0.740625,
2010-07-29, 03:24:04,VALID,1009.29,VALID,0,VALID,102.81,VALID,0,VALID,24.1988,VALID,129,VALID,0.94375,
2010-07-29, 03:25:04,VALID,1009.3,VALID,0,VALID,102.78,VALID,0,VALID,24.2183,VALID,120,VALID,0.798047,
2010-07-29, 03:26:04,VALID,1009.24,VALID,0,VALID,102.765,VALID,0,VALID,24.1988,VALID,122,VALID,0.827734,
2010-07-29, 03:27:04,VALID,1009.19,VALID,0,VALID,102.78,VALID,0,VALID,24.2183,VALID,128,VALID,0.619141,
2010-07-29, 03:28:04,VALID,1009.24,VALID,0,VALID,102.772,VALID,0,VALID,24.1988,VALID,124,VALID,0.471484,
2010-07-29, 03:29:04,VALID,1009.19,VALID,0,VALID,102.772,VALID,0,VALID,24.2202,VALID,101,VALID,0.460156,
2010-07-29, 03:30:04,VALID,1009.19,VALID,0,VALID,102.765,VALID,0,VALID,24.2183,VALID,106,VALID,0.487109,
2010-07-29, 03:31:04,VALID,1009.21,VALID,0,VALID,102.788,VALID,0,VALID,24.2202,VALID,141,VALID,0.925,
2010-07-29, 03:32:04,VALID,1009.25,VALID,0,VALID,102.772,VALID,0,VALID,24.2007,VALID,140,VALID,0.527344,
2010-07-29, 03:33:04,VALID,1009.22,VALID,0,VALID,102.772,VALID,0,VALID,24.2007,VALID,139,VALID,0.587891,
2010-07-29, 03:34:04,VALID,1009.25,VALID,0,VALID,102.749,VALID,0,VALID,24.2007,VALID,139,VALID,0,
2010-07-29, 03:35:04,VALID,1009.26,VALID,0,VALID,102.78,VALID,0,VALID,24.1812,VALID,139,VALID,0.339844,
2010-07-29, 03:36:04,VALID,1009.28,VALID,0,VALID,102.795,VALID,0.105969,VALID,24.2007,VALID,115,VALID,0.664453,
2010-07-29, 03:37:04,VALID,1009.32,VALID,0,VALID,102.757,VALID,0,VALID,24.1812,VALID,88,VALID,0.878125,
2010-07-29, 03:38:04,VALID,1009.35,VALID,0,VALID,102.757,VALID,0.105969,VALID,24.1599,VALID,100,VALID,0.817969,
2010-07-29, 03:39:04,VALID,1009.37,VALID,0,VALID,102.765,VALID,0.105969,VALID,24.2007,VALID,82,VALID,0.513281,
2010-07-29, 03:40:04,VALID,1009.39,VALID,0,VALID,102.757,VALID,0.105969,VALID,24.1793,VALID,90,VALID,0.6,
2010-07-29, 03:41:04,VALID,1009.37,VALID,0,VALID,102.757,VALID,0,VALID,24.1812,VALID,98,VALID,0.569922,
2010-07-29, 03:42:04,VALID,1009.38,VALID,0,VALID,102.772,VALID,0,VALID,24.1793,VALID,102,VALID,0.634375,
2010-07-29, 03:43:04,VALID,1009.39,VALID,0,VALID,102.772,VALID,0,VALID,24.2007,VALID,124,VALID,0.742188,
2010-07-29, 03:44:04,VALID,1009.38,VALID,0,VALID,102.78,VALID,0,VALID,24.1793,VALID,130,VALID,0.681641,
2010-07-29, 03:45:04,VALID,1009.39,VALID,0,VALID,102.765,VALID,0,VALID,24.2007,VALID,133,VALID,0.730859,
2010-07-29, 03:46:04,VALID,1009.39,VALID,0,VALID,102.772,VALID,0,VALID,24.1793,VALID,132,VALID,0.473047,